Torna al catalogo

DELTA 1 DEB

AttivoSSO
NORAD 40768·DEBRIS·🇺🇸 United States

Lanciato Jul 29, 1976 da Vandenberg Space Force Base

Loading…

Prossimi Passaggi (prossime 24 ore)

TLE

AggiornatoSource: Space-Track

Epoca: Sep 13, 2026, 04:41 UTC

1 40768U 76077GM  26256.19572605  .00000303  00000-0  18803-2 0  9996
2 40768 101.4088 235.3749 0046813 218.8282 140.9430 12.64266841590178

Traccia DELTA 1 DEB in tempo reale con AllMySat

Download on the App Store